WX4GPS Weather Reports


time (UTC)temp
F
wind
direction
speed
knots
gust
knots
rain 1hr
in
rain 24hr
in
rain mn
in
humidity
%
barometer
mb
20260509053004 55 134 0.0 0.0 0.00 0.00 0.00
20260509052003 55 134 0.0 0.0 0.00 0.00 0.00
20260509050002 55 134 0.0 0.0 0.00 0.00 0.00
20260509045003 54 134 0.0 0.0 0.00 0.00 0.00
20260509044002 54 134 0.0 0.0 0.00 0.00 0.00
20260509043003 54 134 0.0 0.0 0.00 0.00 0.00
20260509042003 55 134 0.0 0.0 0.00 0.00 0.00
20260509041024 54 134 0.0 0.0 0.00 0.00 0.00
20260509040002 54 134 0.0 0.0 0.00 0.00 0.00
20260509035025 54 134 0.0 0.0 0.00 0.00 0.00
20260509034023 54 134 0.0 0.0 0.00 0.00 0.00
20260509033004 54 134 0.0 0.0 0.00 0.00 0.00
20260509032002 54 134 0.0 0.0 0.00 0.00 0.00
20260509031025 55 134 0.0 0.0 0.00 0.00 0.00
20260509030004 56 134 0.0 0.0 0.00 0.00 0.00
20260509025003 56 134 0.0 0.0 0.00 0.00 0.00
20260509024003 56 134 0.0 0.0 0.00 0.00 0.00
20260509023024 56 134 0.0 0.0 0.00 0.00 0.00
20260509022003 56 134 0.0 0.0 0.00 0.00 0.00
20260509021024 56 134 0.0 0.0 0.00 0.00 0.00
20260509020003 56 134 0.0 0.0 0.00 0.00 0.00
20260509015004 56 134 0.0 0.0 0.00 0.00 0.00
20260509014004 56 134 0.0 0.0 0.00 0.00 0.00
20260509013003 58 134 0.0 0.0 0.00 0.00 0.00
20260509012025 59 134 0.0 0.0 0.00 0.00 0.00
20260509011002 60 134 0.0 0.0 0.00 0.00 0.00
20260509010003 62 134 0.0 0.0 0.00 0.00 0.00
20260509005004 63 134 0.0 2.6 0.00 0.00 0.00
20260509004003 64 180 0.0 4.3 0.00 0.00 0.00
20260509003003 64 175 0.0 0.0 0.00 0.00 0.00
20260509002026 64 175 0.0 4.3 0.00 0.00 0.00
20260509001002 65 175 1.7 7.0 0.00 0.00 0.00
20260509000003 66 200 1.7 7.0 0.00 0.00 0.00
20260508235004 67 222 0.9 6.1 0.00 0.00 0.00
20260508234004 67 229 0.9 7.8 0.00 0.00 0.00
20260508233003 68 176 0.9 10.4 0.00 0.00 0.00
20260508232003 69 185 4.3 12.2 0.00 0.00 0.00
20260508231003 70 224 4.3 13.9 0.00 0.00 0.00
20260508230003 72 167 5.2 11.3 0.00 0.00 0.00
20260508225002 76 190 3.5 13.0 0.00 0.00 0.00
20260508224003 77 200 3.5 13.9 0.00 0.00 0.00
20260508223025 79 194 7.0 13.0 0.00 0.00 0.00
20260508222004 80 212 3.5 10.4 0.00 0.00 0.00
20260508221002 80 210 3.5 11.3 0.00 0.00 0.00
20260508220003 80 225 6.1 14.8 0.00 0.00 0.00
20260508215003 81 168 4.3 10.4 0.00 0.00 0.00
20260508214003 81 207 3.5 9.6 0.00 0.00 0.00
20260508213004 82 257 3.5 10.4 0.00 0.00 0.00
20260508212002 81 192 5.2 11.3 0.00 0.00 0.00
20260508211003 80 183 2.6 14.8 0.00 0.00 0.00
20260508210024 81 200 4.3 10.4 0.00 0.00 0.00
20260508205024 81 176 6.1 10.4 0.00 0.00 0.00
20260508203003 80 181 2.6 10.4 0.00 0.00 0.00
20260508202002 80 169 6.1 11.3 0.00 0.00 0.00
20260508201003 80 190 3.5 11.3 0.00 0.00 0.00
20260508200003 79 203 6.1 14.8 0.00 0.00 0.00
20260508195003 79 189 3.5 13.9 0.00 0.00 0.00
20260508194002 79 222 3.5 13.0 0.00 0.00 0.00
20260508193003 78 221 4.3 12.2 0.00 0.00 0.00
20260508192003 77 159 7.8 14.8 0.00 0.00 0.00
20260508191003 77 239 5.2 13.9 0.00 0.00 0.00
20260508190025 78 200 1.7 13.9 0.00 0.00 0.00
20260508185003 76 162 6.1 11.3 0.00 0.00 0.00
20260508184003 73 213 1.7 12.2 0.00 0.00 0.00
20260508183002 71 171 9.6 20.0 0.00 0.00 0.00
20260508182045 70 186 3.5 13.9 0.00 0.00 0.00
20260508181003 70 225 3.5 17.4 0.00 0.00 0.00
20260508180002 70 178 5.2 13.0 0.00 0.00 0.00
20260508175002 70 187 5.2 12.2 0.00 0.00 0.00
20260508174002 70 208 5.2 10.4 0.00 0.00 0.00
20260508173003 69 246 2.6 8.7 0.00 0.00 0.00
20260508172003 69 182 5.2 13.9 0.00 0.00 0.00
20260508171003 69 224 4.3 11.3 0.00 0.00 0.00
20260508170024 68 152 7.8 12.2 0.00 0.00 0.00
20260508165004 68 205 6.1 12.2 0.00 0.00 0.00
20260508164002 68 250 2.6 9.6 0.00 0.00 0.00
20260508163003 67 173 3.5 11.3 0.00 0.00 0.00
20260508162003 67 146 0.0 9.6 0.00 0.00 0.00
20260508161026 67 239 3.5 10.4 0.00 0.00 0.00
20260508160003 67 235 3.5 7.8 0.00 0.00 0.00
20260508155002 66 219 3.5 9.6 0.00 0.00 0.00
20260508154003 68 223 3.5 11.3 0.00 0.00 0.00
20260508153003 71 271 2.6 9.6 0.00 0.00 0.00
20260508152002 71 190 4.3 10.4 0.00 0.00 0.00
20260508151003 71 165 3.5 8.7 0.00 0.00 0.00
20260508150024 70 211 1.7 8.7 0.00 0.00 0.00
20260508145002 69 233 3.5 8.7 0.00 0.00 0.00
20260508144024 69 289 0.9 8.7 0.00 0.00 0.00
20260508143003 68 236 3.5 9.6 0.00 0.00 0.00
20260508142002 68 263 2.6 7.8 0.00 0.00 0.00
20260508141002 67 223 2.6 9.6 0.00 0.00 0.00
20260508140004 66 218 3.5 7.8 0.00 0.00 0.00
20260508135003 65 248 3.5 8.7 0.00 0.00 0.00
20260508134002 64 264 4.3 8.7 0.00 0.00 0.00
20260508133004 63 230 0.9 6.1 0.00 0.00 0.00
20260508132002 61 198 0.0 5.2 0.00 0.00 0.00
20260508131004 59 231 4.3 8.7 0.00 0.00 0.00
20260508130003 53 189 0.9 6.1 0.00 0.00 0.00
20260508125002 49 184 0.0 4.3 0.00 0.00 0.00
20260508124002 47 291 0.0 4.3 0.00 0.00 0.00
20260508123004 45 217 0.9 3.5 0.00 0.00 0.00
20260508122002 43 198 0.0 2.6 0.00 0.00 0.00
20260508121002 42 333 0.0 0.0 0.00 0.00 0.00
20260508115002 38 333 0.0 0.0 0.00 0.00 0.00
20260508114004 37 333 0.0 0.0 0.00 0.00 0.00
20260508113002 36 333 0.0 0.0 0.00 0.00 0.00
20260508112003 36 333 0.0 0.0 0.00 0.00 0.00
20260508111003 36 333 0.0 0.0 0.00 0.00 0.00
20260508110002 35 333 0.0 0.0 0.00 0.00 0.00
20260508105023 35 333 0.0 0.0 0.00 0.00 0.00
20260508104002 35 333 0.0 0.0 0.00 0.00 0.00
20260508103002 35 333 0.0 0.0 0.00 0.00 0.00
20260508102002 35 333 0.0 0.0 0.00 0.00 0.00
20260508101003 36 333 0.0 0.0 0.00 0.00 0.00
20260508100002 36 333 0.0 0.0 0.00 0.00 0.00
20260508095002 36 333 0.0 0.0 0.00 0.00 0.00
20260508094003 36 333 0.0 0.0 0.00 0.00 0.00
20260508093003 36 333 0.0 0.0 0.00 0.00 0.00
20260508092002 36 333 0.0 0.0 0.00 0.00 0.00
20260508091002 36 333 0.0 0.0 0.00 0.00 0.00
20260508090002 36 333 0.0 0.0 0.00 0.00 0.00
20260508085002 36 333 0.0 0.0 0.00 0.00 0.00
20260508084003 36 333 0.0 0.0 0.00 0.00 0.00
20260508083002 36 333 0.0 0.0 0.00 0.00 0.00
20260508082003 36 333 0.0 0.0 0.00 0.00 0.00
20260508081002 36 333 0.0 0.0 0.00 0.00 0.00
20260508080025 36 333 0.0 0.0 0.00 0.00 0.00
20260508075003 36 333 0.0 0.0 0.00 0.00 0.00
20260508074023 37 333 0.0 0.0 0.00 0.00 0.00
20260508073004 37 333 0.0 0.0 0.00 0.00 0.00
20260508072002 37 333 0.0 0.0 0.00 0.00 0.00
20260508071024 37 333 0.0 0.0 0.00 0.00 0.00
20260508070005 37 333 0.0 0.0 0.00 0.00 0.00
20260508065003 37 333 0.0 0.0 0.00 0.00 0.00
20260508064023 37 333 0.0 0.0 0.00 0.00 0.00
20260508063003 37 333 0.0 0.0 0.00 0.00 0.00
20260508062002 38 333 0.0 0.0 0.00 0.00 0.00
20260508061046 38 333 0.0 0.0 0.00 0.00 0.00
20260508060024 38 333 0.0 0.0 0.00 0.00 0.00
20260508055003 38 333 0.0 0.0 0.00 0.00 0.00
20260508054003 38 333 0.0 0.0 0.00 0.00 0.00